CAPE
0 0 0 0 0 2 7 4 14 0 0 0 0 18 21 4 1 4 0 21 29 33 0 16 365 421 287 291 178 79 138 92 11 3 104 52 62 47 61 0 22 67 74 44 43 104 100 171 81 176 225 138 25 0
0 0 0 0 0 1 5 2 5 0 6 13 4 2 8 10 11 50 32 4 35 9 2 0 7 113 30 3 116 64 90 39 55 32 1 0 35 5 42 259 48 126 129 202 144 181 0 130 41 5 40 20 0 0
0 0 0 0 0 0 6 2 3 0 0 4 1 2 5 4 31 48 37 0 2 11 3 0 3 0 0 0 0 178 26 13 8 0 41 36 142 9 287 193 315 172 7 182 218 1 1 8 0 0 6 0 0 0
2 0 0 0 0 0 4 1 2 0 0 0 8 0 4 10 14 23 32 0 0 0 7 21 0 0 0 2 0 5 0 0 0 0 0 5 32 0 22 299 435 233 135 37 1 0 0 0 0 0 0 0 0 0
2 0 0 0 0 0 1 2 1 0 0 0 0 0 1 11 1 11 8 1 0 0 0 0 0 0 0 5 4 8 1 1 2 0 0 0 0 22 0 129 305 158 109 312 358 30 41 60 0 0 0 0 0 0
1 1 1 1 0 0 1 1 0 0 0 6 10 0 0 7 0 0 1 0 0 0 0 0 0 0 0 0 1 0 8 0 31 162 45 0 0 29 247 330 23 93 47 3 63 0 0 0 0 0 0 0 0 0
2 1 1 1 0 0 2 1 4 0 0 1 21 1 1 0 0 0 0 0 0 0 0 0 0 0 0 0 0 11 1 1 29 27 140 86 5 8 27 245 59 107 11 0 0 0 0 0 0 0 0 0 0 0
3 1 0 1 0 0 0 0 2 6 5 8 17 10 1 0 0 0 0 0 0 0 0 0 0 22 0 0 16 0 19 49 11 16 32 52 0 1 221 6 36 8 0 0 0 0 0 0 0 0 0 0 0 0
3 1 1 1 0 0 0 0 3 7 3 18 7 5 0 0 0 0 0 0 0 0 0 0 0 14 0 0 0 0 0 153 2 12 11 0 0 58 101 27 48 0 0 0 0 0 0 0 0 0 0 0 0 0
1 0 1 2 0 0 0 0 0 2 1 3 5 6 1 0 0 0 1 0 0 0 0 0 0 5 18 1 17 3 0 25 67 3 0 0 0 0 0 0 130 0 0 0 0 0 0 0 0 0 0 0 0 0
0 1 0 0 1 0 0 0 0 0 3 30 21 41 4 0 6 15 13 0 0 0 0 0 0 0 0 39 69 0 0 0 1 25 0 0 0 3 3 0 0 0 0 0 0 0 0 0 0 0 0 0 0 0
0 2 2 0 0 0 0 1 0 0 7 42 53 22 22 53 43 14 0 0 0 0 0 0 0 0 0 0 32 17 4 0 0 0 0 0 0 2 54 1 0 0 0 0 0 0 0 0 0 0 0 0 0 0
0 1 8 0 0 0 3 3 1 0 0 16 39 44 51 34 3 2 0 0 0 0 0 0 0 0 11 2 3 18 3 2 0 0 0 0 0 1 61 0 0 0 0 5 2 0 0 0 0 0 0 0 0 0
0 0 8 4 0 0 9 3 2 1 0 10 23 2 13 7 5 2 0 0 0 0 0 0 0 18 31 24 22 21 11 2 20 13 2 4 0 56 8 0 0 0 0 0 0 0 0 0 0 0 0 0 0 0
0 5 26 20 0 0 14 0 0 0 0 10 14 3 8 2 0 0 0 0 0 0 0 0 0 67 107 27 9 14 1 11 20 12 57 1 30 153 74 1 0 0 0 0 0 0 0 0 0 0 0 0 0 0
19 33 30 3 5 0 19 0 0 0 0 1 7 6 2 3 0 0 0 0 0 0 0 0 10 59 70 65 18 29 2 26 28 0 0 0 42 240 94 30 37 0 0 0 0 0 0 0 0 0 0 0 0 0
42 30 0 10 3 2 5 0 0 0 5 8 6 2 4 6 1 0 0 0 0 0 0 3 30 38 14 64 30 1 21 77 16 236 206 40 133 281 164 2 0 0 0 0 0 0 0 0 0 0 0 0 0 0
0 0 4 9 23 30 4 17 9 11 10 7 8 2 0 1 0 0 0 0 0 0 0 0 15 9 13 14 36 35 8 30 82 48 61 47 94 56 0 4 0 0 0 0 0 0 0 0 0 0 0 0 0 0
0 0 25 56 35 55 13 12 21 4 2 1 1 1 0 0 0 0 0 0 0 0 7 62 51 2 13 24 68 3 27 52 181 21 6 10 12 0 0 0 0 0 0 0 0 0 0 0 0 0 0 0 0 0
38 34 42 59 20 45 30 16 14 4 3 2 1 0 0 0 6 7 6 0 0 0 20 44 0 1 0 2 7 38 39 70 25 24 1 6 2 0 0 0 0 0 0 0 0 0 0 0 0 0 0 0 0 0
3 25 37 59 55 46 28 21 20 14 3 9 16 5 2 1 3 0 12 0 18 0 0 51 78 89 0 3 37 73 134 81 64 63 10 4 5 3 1 0 0 0 0 0 0 0 0 0 0 0 0 0 0 0
22 24 41 47 37 34 19 22 17 27 17 17 62 74 52 15 157 211 31 0 0 31 74 256 122 119 134 93 207 303 282 100 33 2 0 0 2 1 0 0 0 0 0 0 0 0 0 0 0 0 0 0 0 0
18 45 69 22 29 9 2 31 28 15 40 81 126 89 68 166 192 99 150 15 68 106 107 6 18 49 185 206 319 256 158 130 46 14 0 0 0 0 0 0 0 0 0 0 0 0 0 0 0 0 0 0 0 0
15 39 27 40 20 3 21 26 31 26 18 89 63 20 67 105 84 110 49 55 69 54 73 55 145 338 341 267 387 259 67 38 20 0 0 2 0 0 0 0 0 0 0 0 0 0 0 0 0 0 0 0 0 0
3 8 10 2 12 26 19 44 18 36 5 72 46 65 107 103 14 2 26 55 67 71 14 68 215 292 459 247 32 35 0 4 44 33 2 8 2 6 1 0 0 0 0 0 0 0 0 0 0 0 0 0 0 0
3 6 4 15 17 23 23 46 15 3 0 50 89 97 104 42 3 5 0 35 59 42 31 112 118 122 105 33 32 5 1 0 24 42 0 0 0 3 0 0 0 0 0 0 0 0 0 0 0 0 0 0 0 0
2 2 5 6 12 13 10 32 19 8 11 50 23 26 32 1 0 0 0 0 0 0 1 3 32 31 52 19 2 11 17 22 69 110 14 0 4 33 33 10 1 14 0 0 0 0 0 0 0 0 0 0 0 0
7 12 5 11 11 9 5 4 4 1 0 11 9 0 3 0 1 0 0 0 0 0 0 0 0 1 11 1 1 0 0 0 0 0 0 0 0 0 0 18 21 0 0 0 0 0 9 1 0 1 1 0 7 15
0 0 0 3 10 10 2 1 1 0 0 0 7 0 5 0 0 0 0 0 0 0 0 0 0 0 0 0 0 0 0 0 101 163 164 95 57 27 0 7 0 1 0 0 0 0 0 0 0 0 0 7 25 21
0 0 0 0 0 0 0 0 0 0 0 0 0 0 0 0 0 0 0 0 1 12 8 12 0 7 12 59 3 0 0 0 0 66 97 50 62 22 20 24 34 29 16 0 0 0 0 0 0 0 0 0 2 6
0 0 0 0 0 0 0 0 0 0 0 0 0 0 0 0 0 0 0 0 0 0 1 1 0 0 21 25 48 57 55 0 0 0 0 0 0 1 29 28 18 9 1 0 0 0 0 0 0 0 0 1 19 16
0 0 0 0 9 3 0 0 0 0 0 3 1 3 0 8 6 0 0 0 0 0 0 1 20 35 0 0 0 0 0 1 34 0 0 0 0 2 6 0 0 4 14 0 0 0 8 5 5 19 48 36 29 19
0 0 0 0 0 0 0 0 0 7 0 0 0 0 0 0 0 0 0 0 0 0 0 0 0 0 0 0 0 0 0 8 0 0 0 0 0 0 0 1 0 7 9 9 6 5 7 7 10 9 19 29 24 24
CIN
-0 -0 -0 -0 -0 -0 -0 -0 -1 -0 -0 -0 -0 -0 -0 -0 -0 -2 -0 -5 -3 -0 -0 -3 -1 -15 -32 -39 -23 -65 -27 -76 -26 -12 -27 -105 -116 -212 -217 -0 -55 -98 -88 -137 -215 -118 -76 -384 -396 -165 -269 -322 -305 -0
-0 -0 -0 -0 -0 -0 -0 -0 -1 -0 -8 -6 -2 -0 -0 -0 -1 -1 -0 -22 -0 -0 -0 -6 -79 -101 -99 -12 -78 -156 -57 -2 -50 -77 -5 -5 -145 -51 -278 -129 -435 -166 -287 -206 -278 -223 -0 -407 -469 -262 -417 -402 -0 -0
-0 -0 -0 -0 -0 -0 -0 -0 -0 -0 -0 -3 -7 -7 -0 -3 -2 -0 -0 -0 -0 -0 -2 -0 -106 -0 -45 -0 -0 -94 -96 -20 -46 -0 -129 -228 -195 -64 -139 -215 -285 -407 -618 -424 -348 -364 -505 -516 -0 -0 -413 -0 -0 -0
-0 -0 -0 -0 -0 -0 -0 -0 -0 -0 -0 -0 -15 -0 -12 -3 -3 -0 -0 -0 -0 -0 -0 -74 -0 -0 -0 -118 -0 -96 -0 -0 -0 -0 -0 -249 -252 -0 -416 -326 -240 -349 -408 -515 -0 -0 -0 -0 -0 -0 -0 -0 -0 -0
-0 -0 -0 -0 -0 -0 -0 -0 -0 -0 -0 -7 -0 -0 -4 -5 -3 -0 -0 -0 -0 -0 -0 -0 -0 -0 -0 -135 -83 -73 -0 -0 -0 -0 -0 -65 -0 -222 -0 -333 -255 -380 -433 -159 -93 -275 -81 -385 -0 -0 -0 -0 -0 -0
-0 -0 -0 -0 -0 -0 -0 -0 -0 -16 -0 -18 -10 -0 -0 -5 -0 -0 -8 -0 -0 -0 -0 -0 -0 -0 -0 -0 -36 -5 -124 -0 -248 -170 -166 -0 -0 -41 -153 -143 -486 -456 -508 -13 -360 -0 -0 -85 -0 -0 -0 -0 -0 -0
-0 -0 -0 -0 -0 -0 -0 -0 -57 -3 -10 -28 -9 -9 -10 -10 -0 -0 -9 -0 -0 -0 -0 -0 -0 -0 -0 -0 -0 -229 -52 -102 -327 -390 -291 -307 -309 -305 -231 -88 -402 -401 -229 -0 -0 -0 -0 -0 -0 -0 -0 -0 -0 -0
-0 -0 -0 -0 -0 -0 -0 -0 -0 -34 -43 -25 -19 -21 -30 -0 -0 -0 -0 -0 -0 -0 -0 -0 -0 -16 -0 -0 -116 -0 -183 -251 -192 -325 -306 -186 -87 -41 -69 -82 -404 -435 -0 -0 -0 -0 -0 -0 -0 -0 -0 -0 -0 -0
-0 -0 -0 -0 -0 -0 -0 -0 -41 -48 -29 -5 -21 -11 -0 -0 -0 -0 -0 -0 -0 -0 -0 -0 -0 -15 -0 -0 -0 -0 -17 -99 -6 -34 -41 -0 -0 -46 -108 -325 -374 -0 -0 -0 -0 -0 -0 -0 -0 -0 -0 -0 -0 -0
-0 -0 -0 -0 -0 -0 -0 -0 -0 -30 -12 -24 -26 -13 -51 -0 -0 -0 -0 -0 -0 -0 -0 -0 -0 -36 -3 -0 -55 -106 -0 -97 -43 -109 -0 -0 -0 -0 -0 -0 -238 -0 -0 -0 -0 -0 -0 -0 -0 -0 -0 -0 -0 -0
-0 -0 -0 -0 -0 -0 -0 -0 -0 -0 -15 -15 -8 -1 -54 -0 -42 -29 -6 -0 -0 -0 -0 -0 -0 -0 -0 -14 -17 -0 -0 -0 -45 -48 -0 -0 -0 -79 -41 -0 -0 -0 -0 -0 -0 -0 -0 -0 -0 -0 -0 -0 -0 -0
-0 -0 -0 -0 -0 -0 -0 -0 -0 -0 -13 -14 -22 -37 -40 -21 -16 -6 -0 -0 -0 -0 -0 -0 -0 -0 -0 -27 -15 -49 -16 -0 -0 -0 -0 -0 -0 -71 -230 -83 -0 -0 -0 -0 -0 -0 -0 -0 -0 -0 -0 -0 -0 -0
-0 -0 -0 -0 -0 -0 -0 -0 -0 -0 -0 -39 -16 -1 -6 -3 -4 -0 -0 -0 -0 -0 -0 -0 -0 -0 -63 -30 -5 -40 -22 -14 -0 -0 -0 -0 -0 -55 -235 -12 -0 -0 -0 -213 -194 -0 -0 -0 -0 -0 -0 -0 -0 -0
-0 -0 -0 -0 -0 -0 -0 -0 -0 -0 -0 -4 -0 -0 -0 -0 -0 -0 -0 -0 -0 -0 -0 -0 -0 -47 -85 -36 -56 -15 -15 -25 -4 -3 -28 -58 -0 -211 -267 -0 -0 -0 -0 -0 -0 -0 -0 -0 -0 -0 -0 -0 -0 -0
-0 -0 -0 -0 -1 -0 -0 -0 -0 -0 -0 -0 -0 -0 -0 -0 -0 -0 -0 -0 -0 -0 -0 -0 -0 -45 -49 -42 -44 -35 -19 -11 -5 -26 -44 -33 -247 -227 -237 -29 -0 -0 -0 -0 -0 -0 -0 -0 -0 -0 -0 -0 -0 -0
-0 -0 -0 -11 -6 -0 -0 -0 -0 -0 -0 -0 -0 -0 -0 -0 -0 -0 -0 -0 -0 -0 -0 -0 -28 -21 -7 -11 -19 -14 -7 -6 -20 -0 -0 -143 -286 -199 -234 -221 -192 -0 -0 -0 -0 -0 -0 -0 -0 -0 -0 -0 -0 -0
-0 -0 -0 -8 -11 -8 -15 -21 -0 -0 -0 -0 -0 -0 -0 -0 -0 -0 -0 -0 -0 -0 -0 -21 -21 -6 -88 -6 -16 -2 -26 -18 -66 -88 -156 -258 -246 -191 -192 -77 -0 -0 -0 -0 -0 -0 -0 -0 -0 -0 -0 -0 -0 -0
-0 -0 -18 -4 -1 -0 -16 -11 -8 -4 -0 -0 -0 -0 -0 -0 -0 -0 -0 -0 -0 -0 -0 -0 -71 -43 -26 -29 -52 -57 -86 -171 -202 -244 -239 -252 -232 -260 -0 -281 -0 -0 -0 -0 -0 -0 -0 -0 -0 -0 -0 -0 -0 -0
-0 -9 -1 -0 -5 -3 -3 -3 -3 -0 -0 -0 -0 -0 -0 -0 -0 -0 -0 -0 -0 -0 -79 -31 -19 -12 -43 -78 -38 -51 -109 -144 -129 -151 -191 -305 -365 -0 -0 -0 -0 -0 -0 -0 -0 -0 -0 -0 -0 -0 -0 -0 -0 -0
-9 -2 -0 -3 -18 -5 -0 -0 -0 -0 -0 -0 -0 -0 -0 -0 -49 -46 -46 -0 -0 -0 -16 -9 -2 -15 -6 -66 -137 -131 -172 -200 -251 -272 -0 -0 -0 -0 -0 -0 -0 -0 -0 -0 -0 -0 -0 -0 -0 -0 -0 -0 -0 -0
-12 -0 -3 -0 -0 -0 -0 -0 -0 -0 -0 -0 -0 -0 -0 -13 -28 -0 -25 -38 -47 -0 -0 -21 -38 -41 -55 -210 -222 -228 -190 -205 -206 -228 -328 -0 -0 -0 -0 -0 -0 -0 -0 -0 -0 -0 -0 -0 -0 -0 -0 -0 -0 -0
-3 -3 -0 -0 -0 -1 -0 -0 -0 -0 -0 -0 -0 -0 -0 -1 -0 -3 -23 -12 -0 -24 -39 -58 -85 -122 -132 -132 -157 -153 -161 -197 -251 -88 -0 -0 -0 -0 -0 -0 -0 -0 -0 -0 -0 -0 -0 -0 -0 -0 -0 -0 -0 -0
-3 -3 -0 -0 -0 -0 -1 -0 -0 -0 -1 -0 -0 -0 -0 -1 -4 -30 -11 -21 -33 -71 -94 -113 -158 -172 -133 -147 -145 -153 -175 -170 -212 -281 -0 -0 -0 -0 -0 -0 -0 -0 -0 -0 -0 -0 -0 -0 -0 -0 -0 -0 -0 -0
-11 -0 -0 -0 -0 -0 -0 -0 -0 -23 -21 -0 -0 -0 -0 -7 -17 -6 -12 -27 -74 -124 -113 -114 -105 -75 -82 -98 -87 -116 -183 -223 -236 -235 -34 -230 -0 -0 -0 -0 -0 -0 -0 -0 -0 -0 -0 -0 -0 -0 -0 -0 -0 -0
-0 -0 -0 -0 -0 -0 -0 -0 -0 -0 -1 -1 -0 -7 -1 -3 -10 -0 -0 -27 -85 -70 -81 -80 -77 -78 -57 -97 -155 -171 -0 -285 -229 -277 -319 -260 -236 -0 -0 -0 -0 -0 -0 -0 -0 -0 -0 -0 -0 -0 -0 -0 -0 -0
-0 -0 -0 -0 -0 -0 -0 -0 -0 -0 -0 -1 -0 -0 -0 -1 -7 -4 -0 -55 -58 -82 -68 -56 -75 -74 -103 -190 -125 -44 -38 -0 -226 -219 -0 -0 -96 -215 -42 -0 -0 -0 -0 -0 -0 -0 -0 -0 -0 -0 -0 -0 -0 -0
-0 -0 -0 -0 -0 -0 -0 -0 -2 -0 -1 -2 -14 -0 -10 -12 -0 -0 -0 -0 -0 -0 -61 -66 -125 -126 -110 -179 -111 -197 -207 -198 -181 -171 -207 -0 -112 -202 -171 -187 -98 -105 -0 -0 -0 -0 -0 -0 -0 -0 -0 -0 -0 -0
-0 -0 -0 -0 -0 -0 -0 -0 -0 -0 -0 -55 -3 -0 -26 -0 -4 -0 -0 -0 -0 -111 -0 -0 -0 -20 -172 -11 -27 -0 -0 -0 -0 -0 -0 -0 -0 -0 -0 -145 -165 -0 -127 -0 -0 -6 -56 -66 -12 -125 -51 -0 -39 -35
-0 -0 -0 -0 -0 -0 -0 -0 -0 -0 -0 -0 -8 -1 -24 -0 -0 -0 -0 -0 -0 -23 -4 -19 -0 -0 -0 -0 -0 -0 -0 -0 -71 -44 -37 -59 -97 -106 -9 -129 -0 -14 -7 -0 -0 -0 -0 -15 -0 -0 -75 -63 -49 -66
-0 -0 -0 -0 -0 -0 -0 -0 -0 -0 -0 -0 -0 -0 -0 -0 -0 -0 -0 -0 -64 -161 -88 -82 -0 -126 -130 -111 -72 -0 -0 -0 -0 -49 -30 -31 -31 -92 -114 -87 -79 -85 -107 -0 -0 -0 -0 -0 -0 -0 -0 -0 -84 -105
-0 -39 -70 -0 -34 -0 -0 -0 -0 -0 -0 -0 -0 -0 -0 -0 -0 -0 -0 -0 -0 -0 -17 -45 -0 -0 -133 -113 -70 -66 -72 -0 -0 -0 -0 -0 -0 -7 -83 -83 -82 -112 -124 -0 -0 -0 -0 -0 -0 -0 -0 -26 -26 -49
-0 -0 -0 -14 -59 -35 -0 -6 -0 -1 -0 -80 -40 -74 -0 -59 -51 -0 -0 -0 -0 -0 -0 -7 -109 -110 -2 -0 -0 -0 -0 -5 -79 -0 -0 -0 -0 -82 -114 -0 -0 -110 -91 -27 -0 -0 -45 -47 -47 -43 -32 -36 -43 -44
-0 -0 -0 -0 -0 -0 -0 -0 -0 -36 -0 -0 -0 -0 -0 -0 -0 -0 -0 -0 -0 -0 -0 -0 -0 -0 -0 -0 -0 -0 -9 -117 -0 -0 -0 -0 -0 -0 -12 -80 -23 -114 -102 -82 -80 -70 -72 -70 -60 -79 -63 -32 -27 -25
Wind_Speed
10 12 13 14 15 16 17 18 14 8 9 7 7 8 11 10 10 4 4 4 4 3 9 6 4 3 3 3 3 1 4 6 4 5 5 3 2 3 4 3 2 4 6 4 4 4 4 11 7 6 5 12 13 11
10 12 11 14 15 15 16 16 14 8 8 5 7 7 7 9 10 9 3 2 2 4 6 4 9 10 5 4 2 2 6 4 7 5 3 3 3 2 2 5 2 4 2 6 1 3 4 8 3 4 7 13 10 12
11 12 11 12 14 15 15 15 12 9 7 3 6 6 6 6 6 5 3 1 2 4 5 2 4 5 4 7 8 5 2 5 5 1 1 1 4 1 3 3 5 3 1 5 6 3 5 6 7 7 11 12 13 13
10 12 12 12 13 14 16 16 13 9 7 5 6 7 7 7 7 6 2 1 1 3 4 3 2 2 2 4 7 7 5 3 2 1 2 1 3 3 1 3 3 2 7 9 6 5 8 7 8 12 14 15 16 13
10 11 12 11 12 14 15 16 13 8 8 7 7 5 3 3 5 5 5 3 2 2 5 6 8 4 3 4 7 8 8 5 4 2 1 2 1 3 2 1 3 6 8 5 5 15 3 15 14 16 17 16 15 13
10 10 11 11 11 13 15 16 11 6 7 8 7 6 4 4 6 2 2 2 4 1 3 4 2 2 2 6 8 6 6 5 3 4 3 0 2 2 3 2 4 5 5 1 5 16 5 19 18 17 17 16 13 12
9 9 11 10 10 13 14 15 12 6 7 7 7 6 6 4 1 3 2 2 2 3 3 5 2 0 2 1 1 1 3 2 1 2 2 1 2 2 1 2 6 6 5 7 19 21 17 19 13 16 15 13 12 10
9 8 9 10 9 11 14 14 13 5 7 7 6 4 6 8 6 5 0 2 4 2 2 4 2 1 4 1 1 1 0 1 4 2 1 1 2 2 1 5 9 8 11 15 16 5 16 18 18 15 14 14 14 12
8 8 9 9 8 10 12 12 12 4 7 7 5 3 2 1 2 1 6 3 2 3 3 2 3 1 3 2 2 1 3 3 2 1 2 3 1 3 2 9 13 14 10 19 10 17 21 22 20 17 17 15 14 12
7 7 9 8 7 8 10 11 11 7 9 8 2 0 3 3 6 8 1 2 3 3 3 4 0 1 2 0 1 2 2 2 1 1 0 2 2 3 3 6 11 14 16 20 20 19 21 19 20 20 19 15 13 12
6 7 8 8 7 8 10 10 9 10 7 1 3 3 2 5 1 1 3 2 2 4 4 3 5 2 2 1 2 1 1 1 1 2 3 2 3 4 6 8 13 13 18 15 12 19 19 21 20 18 16 13 12 12
6 7 8 8 6 7 10 9 6 2 2 2 1 0 1 2 2 3 2 2 4 4 2 2 2 3 0 2 1 1 2 1 1 1 2 3 4 5 12 14 15 15 16 14 17 20 19 19 18 16 14 13 12 11
7 7 8 7 6 7 8 9 5 5 5 2 2 3 2 2 3 6 7 4 4 3 3 3 3 2 2 0 2 0 1 2 0 3 3 4 1 7 12 14 14 15 15 16 17 18 18 17 15 14 13 11 11 11
8 7 8 7 6 6 4 6 4 5 2 3 4 3 5 5 6 6 5 1 0 2 3 3 2 2 1 2 2 3 0 2 3 3 3 2 4 10 12 12 17 18 17 18 18 17 17 15 13 11 11 11 11 11
9 8 8 7 7 5 3 3 5 2 1 3 3 5 7 6 2 2 3 3 2 2 2 3 2 3 2 3 1 1 2 4 3 3 2 0 8 11 13 14 15 16 16 15 15 14 14 13 12 11 11 10 10 10
10 7 6 8 9 4 6 2 2 0 1 1 3 3 4 3 4 4 5 5 2 2 1 3 2 2 2 2 3 4 3 4 2 2 2 1 9 12 12 13 14 15 15 14 13 14 13 14 14 13 11 10 10 10
12 4 10 11 9 5 4 1 0 1 2 3 3 4 6 4 5 3 2 2 2 3 2 2 5 3 3 4 4 4 4 1 2 4 4 5 11 13 13 13 14 14 14 14 14 13 13 13 14 13 12 9 9 8
2 5 12 12 8 4 1 0 1 2 4 4 4 2 4 4 4 4 3 2 3 3 2 2 2 4 4 5 3 3 3 3 1 2 4 2 7 10 11 14 13 13 14 14 14 14 14 14 13 9 11 10 9 8
5 6 15 14 5 3 2 2 0 3 6 4 4 5 4 4 5 9 7 4 3 1 4 3 4 4 4 3 3 2 1 2 2 1 2 2 8 9 10 11 12 14 15 16 14 9 10 12 9 9 9 9 8 8
11 13 14 11 4 1 4 2 2 4 4 4 4 4 4 4 2 3 5 4 4 3 5 5 5 3 3 1 2 1 2 2 4 3 3 4 6 11 12 9 7 12 13 14 11 10 10 8 7 8 8 9 8 9
5 5 6 4 1 0 1 2 4 4 3 5 3 5 4 3 5 6 4 5 5 5 6 4 4 5 3 2 2 3 3 5 4 3 5 7 7 9 10 9 7 7 10 11 11 9 9 9 8 8 8 8 8 8
4 12 3 4 3 4 3 5 3 1 3 4 2 5 4 6 6 5 3 5 4 4 4 4 3 3 3 4 2 4 5 8 4 5 8 11 9 9 10 11 9 5 7 9 9 11 9 8 8 8 8 8 6 7
8 5 4 5 5 6 4 5 6 4 5 4 5 4 4 4 4 4 4 3 3 3 3 2 2 1 1 2 4 6 7 9 7 6 9 5 7 7 7 7 10 10 9 7 8 10 9 10 9 9 8 8 7 7
2 5 5 6 7 4 4 6 5 5 4 5 4 6 6 4 2 2 1 2 2 2 4 5 5 4 4 5 3 2 2 6 6 7 7 9 7 6 6 7 9 8 7 9 9 9 9 9 10 8 8 8 8 7
4 7 5 6 4 6 6 6 6 5 5 6 8 4 5 4 3 2 2 3 3 4 5 6 4 2 4 5 3 2 3 3 3 6 5 6 8 7 7 6 6 5 7 9 9 9 9 9 9 10 10 9 10 9
6 7 8 8 6 6 7 5 10 9 5 9 8 4 3 4 4 4 4 3 4 4 5 4 4 3 2 2 4 2 2 3 4 4 6 7 8 9 10 10 9 6 4 6 10 11 11 10 10 13 11 11 8 10
5 5 5 5 4 4 5 6 4 3 6 5 5 3 3 4 6 4 2 3 2 3 3 3 2 2 2 4 2 3 5 5 2 3 5 6 5 5 8 10 11 6 8 8 9 12 13 13 12 12 12 10 10 11
5 3 3 2 4 3 1 1 1 1 3 3 7 3 6 6 3 2 3 2 4 7 6 4 3 3 4 4 6 6 5 5 8 8 8 6 3 4 5 5 6 11 7 6 5 4 9 11 10 10 12 12 10 10
4 3 5 1 4 2 1 1 2 2 1 3 4 3 3 2 2 1 1 3 6 7 7 7 4 5 5 5 4 3 6 6 9 10 8 6 4 4 5 6 7 7 8 7 6 6 2 5 7 8 10 10 8 7
2 1 2 5 4 3 1 2 2 1 1 1 2 3 3 3 3 2 4 4 4 5 4 5 6 5 5 5 5 4 2 1 2 2 5 5 4 5 7 7 8 7 6 7 7 6 6 4 3 6 6 6 6 5
4 3 3 4 4 4 4 3 1 2 3 5 5 5 3 2 3 3 3 3 5 5 6 5 3 2 3 4 4 5 4 2 2 3 3 4 4 5 6 6 6 6 7 8 10 10 8 6 5 5 4 7 9 7
3 4 1 2 3 5 5 5 4 4 5 4 4 3 3 3 3 3 2 2 3 3 2 3 3 3 2 3 3 3 1 5 4 4 5 3 3 4 6 5 5 6 7 8 9 10 13 10 7 9 9 9 7 8
2 2 2 2 2 3 4 3 5 3 4 3 4 2 2 1 3 1 2 1 2 2 3 3 3 4 6 4 4 2 2 4 5 3 3 5 5 6 5 5 6 6 8 7 7 8 9 11 9 8 7 7 7 6
Wind_Direction
301 304 310 317 322 321 324 326 325 311 295 249 242 205 193 196 212 207 266 253 257 265 280 256 282 231 220 244 171 171 126 50 309 242 241 198 211 78 98 65 88 114 120 116 120 114 180 156 130 202 90 128 135 138
295 298 310 316 320 324 325 332 330 307 317 151 159 164 185 208 219 210 266 268 260 237 272 292 267 262 248 293 180 337 100 193 221 246 189 189 138 123 160 111 55 114 47 139 340 94 105 148 67 105 139 137 134 130
293 296 309 313 316 323 324 328 326 303 312 256 193 192 230 257 254 218 274 283 224 270 273 239 204 236 205 234 269 103 8 222 240 192 283 83 97 153 130 115 117 93 122 90 170 88 134 147 118 124 141 129 131 129
288 295 306 312 316 323 322 325 314 290 267 241 218 214 246 245 255 243 258 230 232 288 283 301 32 44 108 132 47 64 290 276 251 253 271 146 157 223 98 103 102 73 150 125 91 122 124 148 143 137 127 125 126 130
286 292 301 310 318 321 320 317 304 276 238 228 221 232 335 273 287 283 254 230 199 5 311 303 309 127 179 160 158 179 203 221 246 309 355 185 130 126 62 191 132 185 151 177 175 167 128 161 151 146 139 140 139 138
282 290 298 309 319 321 322 322 311 225 231 227 216 233 285 328 345 323 276 131 192 130 274 297 8 319 175 172 178 220 200 189 200 154 199 172 120 231 165 120 112 163 166 102 146 144 133 135 143 150 143 146 148 154
275 286 297 306 322 320 326 328 319 224 223 231 214 223 263 356 13 242 300 19 151 174 259 291 335 236 269 229 185 278 323 36 339 105 60 110 142 272 131 111 163 147 124 127 127 118 111 147 153 151 144 145 147 145
273 283 293 300 316 324 326 330 325 230 201 202 202 215 301 320 257 276 20 127 150 260 268 287 270 259 354 333 250 352 236 144 25 13 57 349 165 322 123 109 142 128 123 136 147 69 143 138 142 141 138 143 140 137
271 284 289 293 314 321 326 330 333 192 164 140 111 318 314 213 239 254 299 316 184 255 283 258 295 55 335 34 327 326 330 46 335 349 98 267 138 208 192 161 165 162 162 154 130 130 139 142 146 148 151 155 147 145
270 286 287 294 309 313 328 326 330 174 141 130 148 155 289 220 302 308 1 286 208 194 219 250 144 248 247 88 87 251 334 72 220 55 110 245 235 291 193 207 174 165 146 147 131 143 147 152 154 155 160 164 160 157
261 279 287 294 301 314 319 318 334 139 113 149 187 233 292 307 256 77 270 288 323 253 201 237 218 280 124 246 124 331 104 141 208 128 244 204 241 205 154 163 159 156 160 163 158 156 153 151 154 159 161 165 162 162
263 277 277 287 293 307 309 309 323 221 161 171 155 92 261 232 97 229 231 272 229 258 211 218 226 220 173 274 121 84 30 224 243 66 243 240 230 168 157 156 153 155 153 142 144 149 153 156 158 162 164 167 170 164
256 271 269 269 277 293 303 315 259 149 127 22 32 217 224 148 180 209 201 201 231 210 216 192 182 183 162 71 57 46 346 258 52 205 236 251 20 162 156 147 145 150 144 142 146 147 153 154 159 165 163 163 158 159
258 268 265 249 249 281 290 16 126 152 114 165 181 195 217 185 225 203 218 176 292 293 295 233 140 204 146 128 124 190 234 259 230 228 242 276 174 163 154 149 143 153 146 144 145 150 152 155 158 159 157 152 152 154
257 258 241 226 221 255 201 77 50 28 117 172 201 212 221 240 275 258 305 263 249 292 272 192 175 230 117 122 130 127 210 251 239 234 252 223 158 164 155 156 156 143 146 144 145 148 150 148 147 142 145 146 146 142
238 241 212 190 196 214 179 119 50 34 83 167 232 253 240 272 259 243 238 254 246 232 206 254 187 186 125 116 187 205 223 232 238 239 307 281 174 169 164 166 156 146 147 144 149 149 148 150 147 140 138 140 142 144
211 214 180 174 171 167 154 105 84 198 232 204 233 239 267 287 268 279 287 241 164 189 228 211 204 148 116 176 210 196 227 224 354 337 310 212 190 172 161 155 146 143 143 143 141 146 141 136 136 138 139 144 141 142
193 161 164 155 144 130 58 65 220 243 234 233 243 239 225 237 282 280 265 205 193 211 194 273 138 199 194 184 214 217 258 335 19 314 312 261 174 157 161 149 149 145 140 143 145 138 141 144 146 148 142 141 136 139
145 156 159 155 157 143 138 136 285 261 234 252 257 233 259 256 229 249 259 261 229 306 299 215 236 219 209 211 223 180 13 296 295 4 6 78 145 145 146 149 144 138 136 137 138 142 147 153 147 148 147 154 155 157
124 136 150 165 173 167 147 162 198 240 232 219 232 229 226 242 265 256 244 209 196 193 225 223 220 238 227 244 167 135 282 240 162 135 101 119 129 127 128 133 141 138 131 132 130 130 136 137 144 148 158 165 160 161
94 143 127 152 205 310 250 203 200 229 252 242 234 201 244 228 227 242 247 165 194 214 209 226 222 238 193 256 261 211 227 173 178 187 170 152 142 127 120 111 116 137 141 143 146 140 153 154 150 157 158 162 166 164
177 157 117 196 209 200 245 209 250 158 220 251 238 203 222 209 221 189 150 201 233 214 202 195 209 208 230 244 229 206 163 144 134 115 117 134 143 143 145 142 127 146 153 154 149 156 158 151 149 152 160 155 159 159
144 157 160 162 221 203 233 160 195 209 231 226 174 213 219 197 185 177 208 219 260 218 187 168 155 144 235 215 178 158 159 148 150 139 141 147 156 138 143 149 143 155 176 163 164 158 155 147 150 155 152 155 157 161
48 163 192 201 204 220 198 199 195 190 228 236 206 215 183 159 191 172 269 252 233 175 183 169 161 131 121 124 151 173 109 137 134 132 147 142 136 141 162 175 144 174 180 156 159 156 150 158 151 159 163 165 170 178
188 200 210 209 203 209 216 191 190 185 214 226 203 193 162 158 121 128 252 264 205 195 164 159 132 155 145 122 68 50 33 13 133 144 154 144 132 134 149 135 139 143 142 149 157 159 161 160 168 172 175 180 184 194
221 206 203 197 187 203 194 215 193 191 175 204 201 144 146 138 147 183 225 216 196 187 182 144 127 119 54 72 96 216 208 200 176 145 152 161 165 159 160 160 164 170 181 179 158 165 165 171 176 180 186 190 192 199
239 236 206 220 220 204 226 232 244 150 141 111 131 154 155 171 199 191 234 232 184 90 8 49 95 117 129 163 157 185 168 171 131 108 135 156 157 171 178 172 179 173 163 169 168 171 174 179 184 188 190 191 198 206
258 260 241 178 193 239 199 74 51 75 73 137 131 190 186 189 172 175 186 97 106 129 148 179 163 167 155 171 141 128 104 105 98 101 104 99 113 142 140 123 129 142 144 140 122 155 187 186 185 189 193 195 200 206
245 244 285 192 151 136 238 171 152 228 165 171 163 154 139 59 31 88 105 154 155 140 141 150 141 141 119 107 104 110 142 146 138 141 145 149 164 176 173 156 152 157 151 158 144 123 226 209 195 198 201 210 206 193
288 254 265 345 61 75 355 273 310 352 176 225 140 121 81 75 56 59 123 139 147 131 119 121 135 149 140 135 125 114 87 66 25 140 161 168 165 143 168 176 176 168 162 157 140 117 111 137 136 196 182 188 200 191
312 339 46 11 9 14 346 320 119 104 49 45 28 72 61 47 93 60 57 72 100 105 110 109 90 86 130 137 137 139 137 166 164 121 71 112 133 155 161 160 151 146 152 163 162 161 157 161 179 187 169 198 211 212
6 32 52 51 360 340 10 38 26 35 22 40 43 53 60 55 59 42 85 98 111 125 119 152 148 182 164 100 105 77 106 135 139 129 160 171 145 135 153 144 145 154 162 163 169 166 166 165 175 199 199 191 186 193
32 54 66 70 26 22 18 48 32 45 41 47 42 33 51 70 97 81 112 91 54 108 158 165 131 117 142 152 161 135 50 82 81 93 95 88 100 117 131 137 138 158 164 171 160 160 164 172 180 183 189 189 196 207